map of JRO home
JRO - Airport
Location
City:  Kilimanjaro, Kilimanjaro, Tanzania
Name:Kilimanjaro International Airport
ICAO:HTKJ
IATA:JRO

Details
Type:Airport (Aerodrome, Airfield)
Use:Public/Civil, International (customs port of entry)
Latitude:325'46"S (-3.429443)
Longitude:3704'28"E (37.074444)
Elevation:2932 ft (894 m)
Variation:0.13W (WMM2015 magnetic declination)
0.03 annual change
Runways:1
Longest:11834 × 148 ft (3607 × 45 m), paved

Time
Time Zone:UTC+3
Local Time:

Weather
METAR:HTKJ 201000Z 09008KT 9999 BKN036 SCT160 27/17 Q1019 NOSIG
TAF:HTKJ 200500Z 2006/2106 09010KT 9999 BKN030 BKN080
TEMPO 2007/2010 RA
BECMG 2019/2023 00000KT SCT022

Related Locations
Nearby:
Farthest:NHV: 11570 mi / 18621 km
Nuku Hiva, Marquesas Islands, PF

Find:

   beyond  
but within

Other Information
Maps:
NOTAMs:
Links:
Sources:

  
flag of Tanzania   

Sectional Chart

Flight Planning
at skyvector.com

Satellite Image

Google Maps Satellite view

 

Copyright © 2004-2017 Karl L. Swartz. All rights reserved.
The Great Circle Mapper name and logo are trademarks of the Great Circle Mapper.
All other trademarks mentioned herein belong to their respective owners.
Please see credits for attibutions and further copyright information.

  Follow gcmap on Facebook Follow gcmap on Twitter Follow gcmap on Google+ GCmap on LinkedIn

hCard Microformat

Geo Microformat